Location: Waco, TX
(31.5480°N, 97.1670°W)
Time: 14:49:33
(UTC-05:00)

ISS - Pass Details

Date: 23 August 2019
Orbit: 410 x 421 km, 51.6° (Epoch: 22 August)

Event Time Altitude Azimuth Distance (km) Brightness Sun altitude
Rises 07:07:20 0° 227° (SW) 2,331 -0.5 0.9°
Reaches altitude 10° 07:09:25 10° 228° (SW) 1,474 -1.5 1.4°
Maximum altitude 07:12:43 78° 315° (NW) 426 -3.7 2.0°
Drops below altitude 10° 07:16:04 10° 42° (NE) 1,488 0.0 2.7°
Sets 07:18:10 0° 44° (NE) 2,355 1.1 3.2°
